STARLINK-11183, 60189

Orbit data source: Space-Track

STARLINK-11183, 60189 is a payload satellite owned by SpaceX/Seattle (US) in LEO that was launched on Wed, 03 Jul 2024 UTC via an FALCON 9 launch vehicle from the Air Force Eastern Test Range (AFETR). Payload-class satellites include a variety of spacecraft equipped with specific instruments for various scientific and technological missions. These include communications satellites like Starlink; space stations such as the ISS; scientific satellites like the Hubble; Earth observation satellites from companies like Planet Labs, Umbra, and HawkEye 360; GPS; miniature CubeSats for education and research; and military/defense satellites.

Loading next visibility...
Identifier
60189, 2024-124G
Orbit
LEO
Last TLE update
18 hours ago
Origin
Manufacturer
SpaceX/Seattle
Mission
Operational Commercial Communications
Bus & Motor
STARLINK V2M, Unknown motor
Mass
730 kg wet, ~700 kg dry
Launch date (UTC)
2024-07-03 (10 months ago)
Launch vehicle
FALCON 9
Launch site
Air Force Eastern Test Range (AFETR)
Object type
Payload
Rocket body
Debris
Shape & HBR
Box + 2 Pan, 29 m
Radar Cross Section
36.964 m², Large (>1 m²)

Expand to show TLE details & history

TLE from 18 hours ago
0 STARLINK-11183
1 60189U 24124G   25128.54704305  .00000643  00000-0  10160-4 0  9998
2 60189  53.1592 225.8132 0001150  89.0252 271.0898 15.69716996 49565
Epoch: 2025-05-08T13:07Z
Definitive object data (Epoch: 2025-05-08T13:07:44.519Z)
Latitude
Longitude
162.26173°
Altitude
360.607 km
Speed
7.694 km/s
True Right ascension
15h 03m 15s
True Declination
0° 00' 00"
Sunlit
Object was in full shadow at TLE epoch
Visualization TLE readout
Latitude
-50.82839°
Longitude
44.70657°
Altitude
378.005 km
Speed
7.682 km/s
Apparent Right ascension
05h 02m 27s
Apparent Declination
-49° 31' 47"
Sunlit
Object is in daylight
Visualization observer readout
Local Sidereal Time
15:10:07
Azimuth
234.739° WSW
Elevation
-68.024°
Doppler factor
1
Orbital elements
Apogee altitude
360.742 km
Perigee altitude
359.193 km
Semi-major axis
6,738.105 km
Eccentricity
0.000115
Inclination
53.1592°
RAAN
225.8132°
Arg. of periapsis
89.0252°
True anomaly
271.07662°
Mean anomaly
271.0898°
Eccentric anomaly
271.08321°
Mean motion
3.92407 °/min
BSTAR
0.00001016
Orbital period
91.74 mins
Loading maneuver chart data...
Loading SW <> Apogee altitude chart data...
Loading historical data...
Loading historical data...
Loading historical data...
Loading historical data...
Loading historical data...
Loading historical data...
Loading historical data...

STARLINK-11183 Visibility forecast

Observer location: undefined°, undefined°

Span
Click to sort rows by Start time (UTC) header in descending order
Start Az.
Max El. time (UTC)
Max El. Az.
Max El.
End time (UTC)
End Az.
4 mins2025-05-09 09:11:11.639Z230.2° WSW2025-05-09 09:13:11.639Z331.635° NNW44.98°2025-05-09 09:15:11.639Z49.171° ENE
4 mins2025-05-09 15:36:11.639Z325.249° NNW2025-05-09 15:38:11.639Z64.225° ENE38.019°2025-05-09 15:40:11.639Z113.944° SE
|